This is the latest recevied weather packets stored in our database for station/object K7PMV-13. If no packets are shown the sender has not sent any weather packets the latest 10 day(s).
| Time | Temp. | Humidity | Pressure | Rain* | Wind** | Luminosity | Snow |
|---|---|---|---|---|---|---|---|
| 1777759328 | 33.89° C | 18% | 1006.5 hPa | 0 mm | - | 705 W/m² | - |
| 1777759025 | 33.89° C | 18% | 1006.7 hPa | 0 mm | - | 680 W/m² | - |
| 1777758716 | 33.89° C | 18% | 1006.7 hPa | 0 mm | - | 737 W/m² | - |
| 1777758414 | 33.89° C | 18% | 1006.9 hPa | 0 mm | - | 749 W/m² | - |
| 1777758112 | 33.89° C | 18% | 1006.9 hPa | 0 mm | - | 795 W/m² | - |
| 1777757809 | 34.44° C | 18% | 1007 hPa | 0 mm | - | 796 W/m² | - |
| 1777757507 | 34.44° C | 18% | 1007 hPa | 0 mm | - | 691 W/m² | - |
| 1777757204 | 33.89° C | 18% | 1007.2 hPa | 0 mm | - | 846 W/m² | - |
| 1777756898 | 34.44° C | 18% | 1007.2 hPa | 0 mm | - | 849 W/m² | - |
| 1777756596 | 33.89° C | 19% | 1007.3 hPa | 0 mm | - | 860 W/m² | - |
| 1777756293 | 33.33° C | 18% | 1007.3 hPa | 0 mm | - | 851 W/m² | - |
| 1777755990 | 33.33° C | 19% | 1007.3 hPa | 0 mm | - | 888 W/m² | - |
| 1777755685 | 33.89° C | 19% | 1007.4 hPa | 0 mm | - | 886 W/m² | - |
| 1777755383 | 33.89° C | 18% | 1007.5 hPa | 0 mm | - | 889 W/m² | - |
| 1777755081 | 33.89° C | 18% | 1007.6 hPa | 0 mm | - | 896 W/m² | - |
| 1777754778 | 33.89° C | 18% | 1007.7 hPa | 0 mm | - | 907 W/m² | - |
| 1777754475 | 33.33° C | 17% | 1007.8 hPa | 0 mm | - | 905 W/m² | - |
| 1777754173 | 33.89° C | 17% | 1007.9 hPa | 0 mm | - | 911 W/m² | - |
| 1777753504 | 33.89° C | 18% | 1008.1 hPa | 0 mm | - | 939 W/m² | - |
| 1777753183 | 32.78° C | 21% | 1008.1 hPa | 0 mm | - | 939 W/m² | - |
| 1777752880 | 32.78° C | 20% | 1008.2 hPa | 0 mm | - | 937 W/m² | - |
| 1777752578 | 33.33° C | 20% | 1008.3 hPa | 0 mm | - | 944 W/m² | - |
| 1777752275 | 33.33° C | 20% | 1008.5 hPa | 0 mm | - | 947 W/m² | - |
| 1777751972 | 33.33° C | 20% | 1008.5 hPa | 0 mm | - | 946 W/m² | - |
| 1777751669 | 32.78° C | 22% | 1008.6 hPa | 0 mm | - | 949 W/m² | - |
* Rain latest hour (hover to see other rain measurements)
** Current wind speed in m/s (hover to see current wind gust speed)